SV2TW-2 Weather Reports


time (UTC)temp
C
wind
direction
speed
KPH
gust
KPH
rain 1hr
cm
rain 24hr
cm
rain mn
cm
humidity
%
barometer
mb
20260506114203 23 225 8.0 0.0 0.00 0.00 0.00 30 1009.2
20260506113205 23 180 12.9 0.0 0.00 0.00 0.00 30 1009.3
20260506112706 23 135 6.4 0.0 0.00 0.00 0.00 31 1009.3
20260506111704 23 225 8.0 0.0 0.00 0.00 0.00 32 1009.4
20260506111204 23 180 8.0 0.0 0.00 0.00 0.00 32 1009.4
20260506110704 23 180 8.0 0.0 0.00 0.00 0.00 33 1009.4
20260506110203 23 180 6.4 0.0 0.00 0.00 0.00 32 1009.3
20260506105204 24 135 3.2 0.0 0.00 0.00 0.00 32 1009.2
20260506104704 24 135 6.4 0.0 0.00 0.00 0.00 32 1009.6
20260506104204 23 270 3.2 0.0 0.00 0.00 0.00 30 1009.7
20260506103704 23 135 4.8 0.0 0.00 0.00 0.00 32 1009.7
20260506103204 23 225 8.0 0.0 0.00 0.00 0.00 32 1009.8
20260506101703 23 180 9.7 0.0 0.00 0.00 0.00 30 1009.7
20260506100704 23 45 6.4 0.0 0.00 0.00 0.00 30 1009.8
20260506100204 23 90 4.8 0.0 0.00 0.00 0.00 30 1009.9
20260506095204 23 23 3.2 0.0 0.00 0.00 0.00 30 1009.9
20260506094704 23 180 11.3 0.0 0.00 0.00 0.00 30 1009.9
20260506094204 23 225 3.2 0.0 0.00 0.00 0.00 30 1010.0
20260506093203 23 180 11.3 0.0 0.00 0.00 0.00 34 1010.1
20260506092704 22 68 3.2 0.0 0.00 0.00 0.00 38 1010.1
20260506092204 22 315 3.2 0.0 0.00 0.00 0.00 36 1010.0
20260506091705 22 135 4.8 0.0 0.00 0.00 0.00 36 1010.0
20260506091206 22 203 6.4 0.0 0.00 0.00 0.00 34 1010.1
20260506090204 22 0 1.6 0.0 0.00 0.00 0.00 36 1010.0
20260506085705 22 45 8.0 0.0 0.00 0.00 0.00 38 1010.1
20260506085203 22 90 3.2 0.0 0.00 0.00 0.00 41 1010.1
20260506084704 21 180 3.2 0.0 0.00 0.00 0.00 41 1010.1
20260506084203 22 45 6.4 0.0 0.00 0.00 0.00 41 1010.0
20260506083704 21 0 6.4 0.0 0.00 0.00 0.00 40 1010.1
20260506083204 22 135 6.4 0.0 0.00 0.00 0.00 40 1010.1
20260506082704 22 45 3.2 0.0 0.00 0.00 0.00 41 1010.1
20260506082203 22 135 3.2 0.0 0.00 0.00 0.00 41 1010.0
20260506081704 21 225 3.2 0.0 0.00 0.00 0.00 41 1010.1
20260506081204 21 90 6.4 0.0 0.00 0.00 0.00 40 1010.0
20260506080704 21 0 6.4 0.0 0.00 0.00 0.00 38 1010.0
20260506080204 21 90 4.8 0.0 0.00 0.00 0.00 38 1010.0
20260506073205 22 315 1.6 0.0 0.00 0.00 0.00 34 1010.1
20260506072204 21 45 3.2 0.0 0.00 0.00 0.00 33 1010.1
20260506071704 21 315 3.2 0.0 0.00 0.00 0.00 33 1010.0
20260506071203 21 45 4.8 0.0 0.00 0.00 0.00 33 1010.1
20260506070704 20 68 3.2 0.0 0.00 0.00 0.00 35 1010.0
20260506070204 20 45 3.2 0.0 0.00 0.00 0.00 34 1009.9
20260506062204 20 45 3.2 0.0 0.00 0.00 0.00 42 1010.3
20260506061704 20 45 1.6 0.0 0.00 0.00 0.00 43 1010.3
20260506061204 19 0 0.0 0.0 0.00 0.00 0.00 42 1010.4
20260506060704 19 180 1.6 0.0 0.00 0.00 0.00 42 1010.3
20260506060203 19 135 3.2 0.0 0.00 0.00 0.00 42 1010.3
20260506051204 20 180 0.0 0.0 0.00 0.00 0.00 37 1010.1
20260506050704 19 135 0.0 0.0 0.00 0.00 0.00 39 1010.0
20260506050205 18 180 0.0 0.0 0.00 0.00 0.00 40 1010.0
20260506044704 17 315 0.0 0.0 0.00 0.00 0.00 52 1010.0
20260506044204 16 315 0.0 0.0 0.00 0.00 0.00 58 1010.0
20260506043704 14 225 1.6 0.0 0.00 0.00 0.00 61 1009.9
20260506042704 13 225 0.0 0.0 0.00 0.00 0.00 61 1009.8
20260506042204 12 225 0.0 0.0 0.00 0.00 0.00 61 1009.7
20260506041704 12 225 0.0 0.0 0.00 0.00 0.00 65 1009.7
20260506041204 11 225 0.0 0.0 0.00 0.00 0.00 65 1009.4
20260506040703 11 225 0.0 0.0 0.00 0.00 0.00 65 1009.5
20260506040204 10 225 3.2 0.0 0.00 0.00 0.00 65 1009.6
20260506034704 10 225 0.0 0.0 0.00 0.00 0.00 67 1009.4
20260506034204 9 225 1.6 0.0 0.00 0.00 0.00 67 1009.5
20260506033704 9 225 1.6 0.0 0.00 0.00 0.00 66 1009.2
20260506033204 9 225 3.2 0.0 0.00 0.00 0.00 63 1009.4
20260506032204 9 225 0.0 0.0 0.00 0.00 0.00 63 1009.3
20260506031704 10 270 0.0 0.0 0.00 0.00 0.10 62 1009.2
20260506031204 10 225 3.2 0.0 0.00 0.00 0.10 61 1009.3
20260506030704 10 270 1.6 0.0 0.00 0.00 0.10 61 1009.1
20260506030204 10 225 0.0 0.0 0.00 0.00 0.10 61 1009.1
20260506025705 10 270 3.2 0.0 0.00 0.00 0.10 61 1009.2
20260506025204 10 225 3.2 0.0 0.00 0.00 0.10 61 1009.0
20260506024704 10 225 1.6 0.0 0.00 0.00 0.10 62 1009.0
20260506023704 10 45 0.0 0.0 0.00 0.00 0.10 65 1009.1
20260506023204 9 225 1.6 0.0 0.00 0.00 0.10 67 1009.1
20260506022704 8 180 1.6 0.0 0.00 0.00 0.10 68 1009.1
20260506022204 8 225 1.6 0.0 0.00 0.00 0.10 68 1009.4
20260506021704 8 225 1.6 0.0 0.00 0.00 0.10 67 1009.2
20260506021204 8 225 1.6 0.0 0.00 0.00 0.10 67 1009.2
20260506020705 8 225 1.6 0.0 0.00 0.00 0.10 67 1009.3
20260506020204 8 225 1.6 0.0 0.00 0.00 0.10 67 1009.1
20260506015704 8 270 3.2 0.0 0.00 0.00 0.10 68 1009.1
20260506015204 8 270 3.2 0.0 0.00 0.00 0.10 67 1009.3
20260506014704 8 248 1.6 0.0 0.00 0.00 0.10 67 1009.1
20260506013704 8 225 1.6 0.0 0.00 0.00 0.10 68 1009.2
20260506013204 8 225 1.6 0.0 0.00 0.00 0.10 68 1009.1
20260506012704 8 225 3.2 0.0 0.00 0.00 0.10 67 1009.2
20260506012204 8 270 1.6 0.0 0.00 0.00 0.10 68 1009.3
20260506011704 8 225 1.6 0.0 0.00 0.00 0.10 68 1009.2
20260506011204 8 225 0.0 0.0 0.00 0.00 0.10 68 1009.2
20260506010704 8 225 0.0 0.0 0.00 0.00 0.10 67 1009.2
20260506010204 8 225 3.2 0.0 0.00 0.00 0.10 68 1009.2
20260506005704 8 225 3.2 0.0 0.00 0.00 0.10 69 1009.2
20260506005204 8 270 3.2 0.0 0.00 0.00 0.10 70 1009.1
20260506004704 8 270 3.2 0.0 0.00 0.00 0.10 70 1009.1
20260506004204 8 225 1.6 0.0 0.00 0.00 0.10 70 1009.0
20260506003704 8 270 3.2 0.0 0.00 0.00 0.10 71 1009.1
20260506003204 8 225 3.2 0.0 0.00 0.00 0.10 71 1009.1
20260506002704 8 270 3.2 0.0 0.00 0.00 0.10 70 1009.2
20260506002204 8 225 3.2 0.0 0.00 0.00 0.10 70 1009.0
20260506001704 8 270 1.6 0.0 0.00 0.00 0.10 70 1008.9
20260506001204 8 270 3.2 0.0 0.00 0.00 0.10 70 1009.0
20260506000704 8 270 3.2 0.0 0.00 0.00 0.10 70 1009.0
20260506000205 8 270 1.6 0.0 0.00 0.00 0.10 69 1008.9
20260505235704 9 225 3.2 0.0 0.00 0.00 0.10 68 1009.0
20260505235204 9 225 1.6 0.0 0.00 0.00 0.10 68 1009.2
20260505234704 9 225 1.6 0.0 0.00 0.00 0.10 68 1009.0
20260505233703 9 225 0.0 0.0 0.00 0.00 0.00 68 1009.3
20260505233204 9 225 1.6 0.0 0.00 0.00 0.00 67 1009.2
20260505232704 9 225 3.2 0.0 0.00 0.00 0.00 66 1009.2
20260505231704 10 225 3.2 0.0 0.00 0.00 0.00 67 1009.1
20260505231204 10 270 3.2 0.0 0.00 0.00 0.00 66 1009.2
20260505230704 10 225 3.2 0.0 0.00 0.00 0.00 66 1009.2
20260505230204 10 270 3.2 0.0 0.00 0.00 0.00 67 1009.2
20260505225704 10 225 1.6 0.0 0.00 0.00 0.00 68 1009.3
20260505225203 10 225 0.0 0.0 0.00 0.00 0.00 70 1009.3
20260505224704 10 225 3.2 0.0 0.00 0.00 0.00 70 1009.3
20260505224203 10 225 3.2 0.0 0.00 0.00 0.00 70 1009.3
20260505223703 10 225 1.6 0.0 0.00 0.00 0.00 70 1009.2
20260505223204 10 225 1.6 0.0 0.00 0.00 0.00 70 1009.4
20260505222704 10 225 3.2 0.0 0.00 0.00 0.00 70 1009.3
20260505222204 10 225 3.2 0.0 0.00 0.00 0.00 70 1009.2
20260505221204 9 225 1.6 0.0 0.00 0.00 0.10 71 1009.1
20260505220704 10 270 3.2 0.0 0.00 0.00 0.10 70 1009.1
20260505220204 10 270 3.2 0.0 0.00 0.00 0.10 70 1009.2
20260505215704 10 225 3.2 0.0 0.00 0.00 0.10 70 1009.1
20260505215204 10 225 1.6 0.0 0.00 0.00 0.10 70 1009.1
20260505214704 10 270 3.2 0.0 0.00 0.00 0.10 70 1009.0
20260505214204 10 225 0.0 0.0 0.00 0.00 0.10 70 1009.0
20260505213704 10 225 1.6 0.0 0.00 0.00 0.10 70 1009.1
20260505213204 10 225 1.6 0.0 0.00 0.00 0.10 70 1009.1
20260505212703 10 225 3.2 0.0 0.00 0.00 0.10 70 1009.1
20260505212204 10 225 1.6 0.0 0.00 0.00 0.10 70 1009.0
20260505211704 10 270 1.6 0.0 0.00 0.00 0.10 70 1009.0
20260505211204 10 270 3.2 0.0 0.00 0.00 0.10 70 1009.1
20260505210703 10 180 1.6 0.0 0.00 0.00 0.10 70 1009.2
20260505210204 10 225 1.6 0.0 0.00 0.00 0.10 70 1009.2
20260505205204 10 225 1.6 0.0 0.00 0.00 0.10 70 1009.1
20260505204704 10 270 3.2 0.0 0.00 0.00 0.10 70 1009.1
20260505204205 11 225 0.0 0.0 0.00 0.00 0.10 69 1009.2
20260505203704 11 270 3.2 0.0 0.00 0.00 0.10 68 1009.2
20260505203204 11 225 0.0 0.0 0.00 0.00 0.10 67 1009.0
20260505202704 11 270 3.2 0.0 0.00 0.00 0.10 66 1009.1
20260505201703 11 225 0.0 0.0 0.00 0.00 0.10 64 1009.0
20260505201204 12 225 0.0 0.0 0.00 0.00 0.10 64 1009.0
20260505200704 12 135 0.0 0.0 0.00 0.00 0.10 65 1009.0
20260505200204 12 225 3.2 0.0 0.00 0.00 0.10 67 1008.8
20260505195704 11 225 3.2 0.0 0.00 0.00 0.10 67 1008.7
20260505195204 11 23 1.6 0.0 0.00 0.00 0.10 66 1008.8
20260505194704 12 45 1.6 0.0 0.00 0.00 0.10 67 1008.7
20260505194204 11 180 0.0 0.0 0.00 0.00 0.10 66 1008.7
20260505193704 12 315 1.6 0.0 0.00 0.00 0.10 65 1008.6
20260505193204 12 270 0.0 0.0 0.00 0.00 0.10 64 1008.7
20260505192704 12 180 1.6 0.0 0.00 0.00 0.10 60 1008.5
20260505192204 12 270 0.0 0.0 0.00 0.00 0.10 59 1008.6
20260505191704 13 0 0.0 0.0 0.00 0.00 0.10 58 1008.5
20260505191204 13 45 0.0 0.0 0.00 0.00 0.10 59 1008.4
20260505190704 13 135 0.0 0.0 0.00 0.00 0.10 59 1008.4
20260505190204 13 180 0.0 0.0 0.00 0.00 0.10 58 1008.2
20260505184704 13 270 3.2 0.0 0.00 0.00 0.10 52 1008.0
20260505184204 13 225 0.0 0.0 0.00 0.00 0.10 51 1008.0
20260505183704 13 180 3.2 0.0 0.00 0.00 0.10 50 1008.0
20260505183204 14 270 3.2 0.0 0.00 0.00 0.10 49 1008.0
20260505182704 14 90 0.0 0.0 0.00 0.00 0.10 46 1008.0
20260505182204 14 315 0.0 0.0 0.00 0.00 0.10 46 1008.1
20260505181704 15 135 0.0 0.0 0.00 0.00 0.10 45 1007.8
20260505181204 15 45 0.0 0.0 0.00 0.00 0.10 45 1008.0
20260505180704 15 180 3.2 0.0 0.00 0.00 0.10 44 1007.7
20260505180204 15 180 3.2 0.0 0.00 0.00 0.10 42 1007.7
20260505175704 15 180 1.6 0.0 0.00 0.00 0.10 42 1007.7
20260505175204 16 0 3.2 0.0 0.00 0.00 0.10 41 1007.8
20260505174704 16 0 3.2 0.0 0.00 0.00 0.10 40 1007.7
20260505174203 16 90 4.8 0.0 0.00 0.00 0.10 38 1007.5
20260505173203 17 90 1.6 0.0 0.00 0.00 0.10 40 1007.5
20260505172704 17 45 3.2 0.0 0.00 0.00 0.10 35 1007.6
20260505172204 17 45 3.2 0.0 0.00 0.00 0.10 34 1007.4
20260505171704 18 135 1.6 0.0 0.00 0.00 0.10 32 1007.4
20260505171204 18 90 3.2 0.0 0.00 0.00 0.10 31 1007.6
20260505170704 19 180 1.6 0.0 0.00 0.00 0.10 30 1007.4
20260505170204 19 158 6.4 0.0 0.00 0.00 0.10 30 1007.2
20260505165704 19 225 6.4 0.0 0.00 0.00 0.10 31 1007.1
20260505165204 19 180 4.8 0.0 0.00 0.00 0.10 33 1007.1
20260505164703 19 180 6.4 0.0 0.00 0.00 0.10 35 1007.1
20260505163704 20 225 8.0 0.0 0.00 0.00 0.10 40 1007.0
20260505163204 20 180 8.0 0.0 0.00 0.00 0.10 38 1007.0
20260505162704 21 248 4.8 0.0 0.00 0.00 0.10 34 1007.1
20260505162205 21 225 4.8 0.0 0.00 0.00 0.10 34 1007.0
20260505161704 21 225 4.8 0.0 0.00 0.00 0.10 35 1007.1
20260505161204 21 225 6.4 0.0 0.00 0.00 0.10 35 1006.9
20260505160704 21 225 8.0 0.0 0.00 0.00 0.10 35 1007.1
20260505153204 22 315 16.1 0.0 0.00 0.00 0.10 34 1007.1
20260505152704 22 225 12.9 0.0 0.00 0.00 0.10 33 1007.3
20260505152204 22 180 9.7 0.0 0.00 0.00 0.10 34 1007.2
20260505151704 22 225 14.5 0.0 0.00 0.00 0.10 31 1007.3
20260505151204 22 180 16.1 0.0 0.00 0.00 0.10 31 1007.2
20260505150204 23 225 11.3 0.0 0.00 0.00 0.10 23 1007.4
20260505140204 23 270 4.8 0.0 0.00 0.00 0.10 22 1007.2
20260505124704 23 315 8.0 0.0 0.00 0.00 0.10 25 1007.8
20260505124204 23 315 9.7 0.0 0.00 0.00 0.10 23 1007.9
20260505123704 24 0 9.7 0.0 0.00 0.00 0.10 24 1007.8
20260505123204 25 315 3.2 0.0 0.00 0.00 0.10 22 1007.8
20260505122704 24 225 3.2 0.0 0.00 0.00 0.10 22 1007.9
20260505122204 24 270 6.4 0.0 0.00 0.00 0.10 23 1008.1
20260505121704 23 315 6.4 0.0 0.00 0.00 0.10 25 1008.1
20260505121204 23 293 8.0 0.0 0.00 0.00 0.10 25 1008.1
20260505120704 23 270 11.3 0.0 0.00 0.00 0.10 24 1008.2
20260505120204 23 315 8.0 0.0 0.00 0.00 0.10 24 1008.2
20260505115704 23 315 8.0 0.0 0.00 0.00 0.10 23 1008.4
20260505115203 24 0 17.7 0.0 0.00 0.00 0.10 23 1008.4
20260505114704 24 315 11.3 0.0 0.00 0.00 0.10 23 1008.6